Time,TemperatureF,DewpointF,PressureIn,WindDirection,WindDirectionDegrees,WindSpeedMPH,WindSpeedGustMPH,Humidity,HourlyPrecipIn,Conditions,Clouds,dailyrainin,SolarRadiationWatts/m^2,SoftwareType,DateUTC
2013-06-12 00:22:00,56.0,54.0,-100.00,West,264,10.0,15.0,94,0.00,,,0.51,0.000000,,2013-06-12 06:22:00,
2013-06-12 00:32:00,56.0,54.0,-100.00,West,264,10.0,15.0,94,0.00,,,0.51,0.000000,,2013-06-12 06:32:00,
2013-06-12 00:42:00,56.0,54.0,-100.00,West,264,10.0,15.0,94,0.00,,,0.51,0.000000,,2013-06-12 06:42:00,
2013-06-12 00:52:00,56.0,54.0,-100.00,West,264,10.0,15.0,94,0.00,,,0.51,0.000000,,2013-06-12 06:52:00,
2013-06-12 01:22:00,57.0,55.0,-100.00,West,281,7.0,12.0,93,0.00,,,0.51,0.000000,,2013-06-12 07:22:00,
2013-06-12 01:33:00,57.0,55.0,-100.00,West,281,7.0,12.0,93,0.00,,,0.51,0.000000,,2013-06-12 07:33:00,
2013-06-12 01:43:00,57.0,55.0,-100.00,West,281,7.0,12.0,93,0.00,,,0.51,0.000000,,2013-06-12 07:43:00,
2013-06-12 01:53:00,57.0,55.0,-100.00,West,281,7.0,12.0,93,0.00,,,0.51,0.000000,,2013-06-12 07:53:00,
2013-06-12 02:22:00,56.0,54.0,-100.00,NNW,330,4.0,8.0,93,0.00,,,0.51,0.000000,,2013-06-12 08:22:00,
2013-06-12 02:33:00,56.0,54.0,-100.00,NNW,330,4.0,8.0,93,0.00,,,0.51,0.000000,,2013-06-12 08:33:00,
2013-06-12 02:43:00,56.0,54.0,-100.00,NNW,330,4.0,8.0,93,0.00,,,0.51,0.000000,,2013-06-12 08:43:00,
2013-06-12 02:53:00,56.0,54.0,-100.00,NNW,330,4.0,8.0,93,0.00,,,0.51,0.000000,,2013-06-12 08:53:00,
2013-06-12 03:22:00,55.0,54.0,-100.00,North,356,3.0,9.0,95,0.00,,,0.51,0.000000,,2013-06-12 09:22:00,
2013-06-12 03:33:00,55.0,54.0,-100.00,North,356,3.0,9.0,95,0.00,,,0.51,0.000000,,2013-06-12 09:33:00,
2013-06-12 03:42:00,55.0,54.0,-100.00,North,356,3.0,9.0,95,0.00,,,0.51,0.000000,,2013-06-12 09:42:00,
2013-06-12 03:53:00,55.0,54.0,-100.00,North,356,3.0,9.0,95,0.00,,,0.51,0.000000,,2013-06-12 09:53:00,
2013-06-12 04:33:00,52.0,51.0,-100.00,SSE,153,2.0,6.0,97,0.00,,,0.51,0.000000,,2013-06-12 10:33:00,
2013-06-12 04:43:00,52.0,51.0,-100.00,SSE,153,2.0,6.0,97,0.00,,,0.51,0.000000,,2013-06-12 10:43:00,
2013-06-12 04:53:00,52.0,51.0,-100.00,SSE,153,2.0,6.0,97,0.00,,,0.51,0.000000,,2013-06-12 10:53:00,
2013-06-12 05:24:00,53.0,52.0,-100.00,WSW,237,0.0,3.0,98,0.00,,,0.51,0.000000,,2013-06-12 11:24:00,
2013-06-12 05:33:00,53.0,52.0,-100.00,WSW,237,0.0,3.0,98,0.00,,,0.51,0.000000,,2013-06-12 11:33:00,
2013-06-12 05:43:00,53.0,52.0,-100.00,WSW,237,0.0,3.0,98,0.00,,,0.51,0.000000,,2013-06-12 11:43:00,
2013-06-12 05:53:00,53.0,52.0,-100.00,WSW,237,0.0,3.0,98,0.00,,,0.51,0.000000,,2013-06-12 11:53:00,
2013-06-12 06:23:00,53.0,53.0,-100.00,SSE,153,4.0,5.0,99,0.00,,,0.51,9.000000,,2013-06-12 12:23:00,
2013-06-12 06:33:00,53.0,53.0,-100.00,SSE,153,4.0,5.0,99,0.00,,,0.51,9.000000,,2013-06-12 12:33:00,
2013-06-12 06:42:00,53.0,53.0,-100.00,SSE,153,4.0,5.0,99,0.00,,,0.51,9.000000,,2013-06-12 12:42:00,
2013-06-12 06:53:00,53.0,53.0,-100.00,SSE,153,4.0,5.0,99,0.00,,,0.51,9.000000,,2013-06-12 12:53:00,
2013-06-12 07:32:00,54.0,54.0,-100.00,South,187,1.0,4.0,99,0.00,,,0.51,44.000000,,2013-06-12 13:32:00,
2013-06-12 07:43:00,54.0,54.0,-100.00,South,187,1.0,4.0,99,0.00,,,0.51,44.000000,,2013-06-12 13:43:00,
2013-06-12 07:53:00,54.0,54.0,-100.00,South,187,1.0,4.0,99,0.00,,,0.51,44.000000,,2013-06-12 13:53:00,
2013-06-12 08:24:00,57.0,56.0,-100.00,North,358,1.0,3.0,95,0.00,,,0.51,82.000000,,2013-06-12 14:24:00,
2013-06-12 08:33:00,57.0,56.0,-100.00,North,358,1.0,3.0,95,0.00,,,0.51,82.000000,,2013-06-12 14:33:00,
2013-06-12 08:43:00,57.0,56.0,-100.00,North,358,1.0,3.0,95,0.00,,,0.51,82.000000,,2013-06-12 14:43:00,
2013-06-12 08:53:00,57.0,56.0,-100.00,North,358,1.0,3.0,95,0.00,,,0.51,82.000000,,2013-06-12 14:53:00,
2013-06-12 09:23:00,58.0,54.0,-100.00,ESE,106,3.0,6.0,87,0.00,,,0.51,121.000000,,2013-06-12 15:23:00,
2013-06-12 09:33:00,58.0,54.0,-100.00,ESE,106,3.0,6.0,87,0.00,,,0.51,121.000000,,2013-06-12 15:33:00,
2013-06-12 09:43:00,58.0,54.0,-100.00,ESE,106,3.0,6.0,87,0.00,,,0.51,121.000000,,2013-06-12 15:43:00,
2013-06-12 09:52:00,58.0,54.0,-100.00,ESE,106,3.0,6.0,87,0.00,,,0.51,121.000000,,2013-06-12 15:52:00,
2013-06-12 10:22:00,60.0,55.0,-100.00,SE,139,3.0,6.0,84,0.00,,,0.51,199.000000,,2013-06-12 16:22:00,
2013-06-12 10:32:00,60.0,55.0,-100.00,SE,139,3.0,6.0,84,0.00,,,0.51,199.000000,,2013-06-12 16:32:00,
2013-06-12 10:43:00,60.0,55.0,-100.00,SE,139,3.0,6.0,84,0.00,,,0.51,199.000000,,2013-06-12 16:43:00,
2013-06-12 10:52:00,60.0,55.0,-100.00,SE,139,3.0,6.0,84,0.00,,,0.51,199.000000,,2013-06-12 16:52:00,
2013-06-12 11:22:00,63.0,55.0,-100.00,SSE,161,5.0,9.0,76,0.00,,,0.51,427.000000,,2013-06-12 17:22:00,
2013-06-12 11:33:00,63.0,55.0,-100.00,SSE,161,5.0,9.0,76,0.00,,,0.51,427.000000,,2013-06-12 17:33:00,
2013-06-12 11:42:00,63.0,55.0,-100.00,SSE,161,5.0,9.0,76,0.00,,,0.51,427.000000,,2013-06-12 17:42:00,
2013-06-12 11:52:00,63.0,55.0,-100.00,SSE,161,5.0,9.0,76,0.00,,,0.51,427.000000,,2013-06-12 17:52:00,
2013-06-12 12:22:00,64.0,56.0,-100.00,SSE,159,5.0,9.0,74,0.00,,,0.51,389.000000,,2013-06-12 18:22:00,
2013-06-12 12:32:00,64.0,56.0,-100.00,SSE,159,5.0,9.0,74,0.00,,,0.51,389.000000,,2013-06-12 18:32:00,
2013-06-12 12:43:00,64.0,56.0,-100.00,SSE,159,5.0,9.0,74,0.00,,,0.51,389.000000,,2013-06-12 18:43:00,
2013-06-12 12:53:00,64.0,56.0,-100.00,SSE,159,5.0,9.0,74,0.00,,,0.51,389.000000,,2013-06-12 18:53:00,
2013-06-12 13:22:00,64.0,56.0,-100.00,West,278,9.0,11.0,76,0.00,,,0.51,265.000000,,2013-06-12 19:22:00,
2013-06-12 13:32:00,64.0,56.0,-100.00,West,278,9.0,11.0,76,0.00,,,0.51,265.000000,,2013-06-12 19:32:00,
2013-06-12 13:42:00,64.0,56.0,-100.00,West,278,9.0,11.0,76,0.00,,,0.51,265.000000,,2013-06-12 19:42:00,
2013-06-12 13:52:00,64.0,56.0,-100.00,West,278,9.0,11.0,76,0.00,,,0.51,265.000000,,2013-06-12 19:52:00,
2013-06-12 14:32:00,68.0,59.0,-100.00,SSW,210,4.0,10.0,73,0.00,,,0.51,372.000000,,2013-06-12 20:32:00,
2013-06-12 14:42:00,68.0,59.0,-100.00,SSW,210,4.0,10.0,73,0.00,,,0.51,372.000000,,2013-06-12 20:42:00,
2013-06-12 14:54:00,68.0,59.0,-100.00,SSW,210,4.0,10.0,73,0.00,,,0.51,372.000000,,2013-06-12 20:54:00,
2013-06-12 15:33:00,69.0,59.0,-100.00,SE,130,8.0,11.0,70,0.00,,,0.51,442.000000,,2013-06-12 21:33:00,
2013-06-12 15:43:00,69.0,59.0,-100.00,SE,130,8.0,11.0,70,0.00,,,0.51,442.000000,,2013-06-12 21:43:00,
2013-06-12 15:52:00,69.0,59.0,-100.00,SE,130,8.0,11.0,70,0.00,,,0.51,442.000000,,2013-06-12 21:52:00,
2013-06-12 16:22:00,68.0,56.0,-100.00,NE,42,3.0,12.0,66,0.01,,,0.52,265.000000,,2013-06-12 22:22:00,
2013-06-12 16:32:00,68.0,56.0,-100.00,NE,42,3.0,12.0,66,0.01,,,0.52,265.000000,,2013-06-12 22:32:00,
2013-06-12 16:43:00,68.0,56.0,-100.00,NE,42,3.0,12.0,66,0.01,,,0.52,265.000000,,2013-06-12 22:43:00,
2013-06-12 16:52:00,68.0,56.0,-100.00,NE,42,3.0,12.0,66,0.01,,,0.52,265.000000,,2013-06-12 22:52:00,
2013-06-12 17:32:00,71.0,63.0,-100.00,NNE,21,5.0,9.0,77,0.01,,,0.10,269.000000,,2013-06-12 23:32:00,
2013-06-12 17:42:00,71.0,63.0,-100.00,NNE,21,5.0,9.0,77,0.01,,,0.10,269.000000,,2013-06-12 23:42:00,
2013-06-12 17:52:00,71.0,63.0,-100.00,NNE,21,5.0,9.0,77,0.01,,,0.10,269.000000,,2013-06-12 23:52:00,
2013-06-12 18:32:00,72.0,59.0,-100.00,SE,129,11.0,15.0,64,0.00,,,0.05,345.000000,,2013-06-13 00:32:00,
2013-06-12 18:42:00,72.0,59.0,-100.00,SE,129,11.0,15.0,64,0.00,,,0.05,345.000000,,2013-06-13 00:42:00,
2013-06-12 18:52:00,72.0,59.0,-100.00,SE,129,11.0,15.0,64,0.00,,,0.05,345.000000,,2013-06-13 00:52:00,
2013-06-12 19:22:00,71.0,59.0,-100.00,SE,136,19.0,25.0,66,0.00,,,0.05,267.000000,,2013-06-13 01:22:00,
2013-06-12 19:32:00,71.0,59.0,-100.00,SE,136,19.0,25.0,66,0.00,,,0.05,267.000000,,2013-06-13 01:32:00,
2013-06-12 19:43:00,71.0,59.0,-100.00,SE,136,19.0,25.0,66,0.00,,,0.05,267.000000,,2013-06-13 01:43:00,
2013-06-12 19:53:00,71.0,59.0,-100.00,SE,136,19.0,25.0,66,0.00,,,0.05,267.000000,,2013-06-13 01:53:00,
2013-06-12 20:22:00,71.0,58.0,-100.00,SE,129,11.0,24.0,64,0.00,,,0.05,211.000000,,2013-06-13 02:22:00,
2013-06-12 20:33:00,71.0,58.0,-100.00,SE,129,11.0,24.0,64,0.00,,,0.05,211.000000,,2013-06-13 02:33:00,
2013-06-12 20:43:00,71.0,58.0,-100.00,SE,129,11.0,24.0,64,0.00,,,0.05,211.000000,,2013-06-13 02:43:00,
2013-06-12 20:52:00,71.0,58.0,-100.00,SE,129,11.0,24.0,64,0.00,,,0.05,211.000000,,2013-06-13 02:52:00,
2013-06-12 21:22:00,68.0,58.0,-100.00,SSE,163,11.0,17.0,70,0.00,,,0.05,25.000000,,2013-06-13 03:22:00,
2013-06-12 21:33:00,68.0,58.0,-100.00,SSE,163,11.0,17.0,70,0.00,,,0.05,25.000000,,2013-06-13 03:33:00,
2013-06-12 21:42:00,68.0,58.0,-100.00,SSE,163,11.0,17.0,70,0.00,,,0.05,25.000000,,2013-06-13 03:42:00,
2013-06-12 21:52:00,68.0,58.0,-100.00,SSE,163,11.0,17.0,70,0.00,,,0.05,25.000000,,2013-06-13 03:52:00,
2013-06-12 22:32:00,67.0,56.0,-100.00,SSE,159,8.0,17.0,67,0.00,,,0.03,0.000000,,2013-06-13 04:32:00,
2013-06-12 22:43:00,67.0,56.0,-100.00,SSE,159,8.0,17.0,67,0.00,,,0.03,0.000000,,2013-06-13 04:43:00,
2013-06-12 22:53:00,67.0,56.0,-100.00,SSE,159,8.0,17.0,67,0.00,,,0.03,0.000000,,2013-06-13 04:53:00,
2013-06-12 23:24:00,65.0,57.0,-100.00,SSE,155,13.0,22.0,76,0.00,,,0.02,0.000000,,2013-06-13 05:24:00,
2013-06-12 23:33:00,65.0,57.0,-100.00,SSE,155,13.0,22.0,76,0.00,,,0.02,0.000000,,2013-06-13 05:33:00,
2013-06-12 23:42:00,65.0,57.0,-100.00,SSE,155,13.0,22.0,76,0.00,,,0.02,0.000000,,2013-06-13 05:42:00,
2013-06-12 23:53:00,65.0,57.0,-100.00,SSE,155,13.0,22.0,76,0.00,,,0.02,0.000000,,2013-06-13 05:53:00,